Station ROBN4 - 8530973 - Robbins Reef, NJ Image indicating link to RSS feed of recent meteorological observations for station ROBN4


Conditions at ROBN4 as of
(6:30 pm EDT)
2230 GMT on 05/30/2024:
     

Click on the graph icon in the table below to see a time series plot of the last five days of that observation.

5-day plot - Wind Direction Wind Direction (WDIR): NE ( 40 deg true )
5-day plot - Wind Speed Wind Speed (WSPD): 8.0 kts
5-day plot - Wind Gust Wind Gust (GST): 8.0 kts
5-day plot - Atmospheric Pressure Atmospheric Pressure (PRES):29.97 in
5-day plot - Air Temperature Air Temperature (ATMP): 69.1 °F
5-day plot - Wind Speed at 10 Meters Wind Speed at 10 meters (WSPD10M): 7.8 kts
5-day plot - Wind Speed at 20 Meters Wind Speed at 20 meters (WSPD20M): 7.8 kts
5-day plot -  Wind Speed, Wind Gust and Atmospheric Pressure Combined plot of Wind Speed, Gust, and Air Pressure
NOS Water Level Observation Network Water Level
Previous observations
TIME
(EDT)
5-day plot - Wind Direction
WDIR
 
5-day plot - Wind Speed
WSPD
kts
5-day plot - Wind Gust
GST
kts
5-day plot - Wave Height
WVHT
ft
5-day plot - Dominant Wave Period
DPD
sec
5-day plot - Average Wave Period
APD
sec
5-day plot - Mean Wave Direction
MWD
 
5-day plot - Atmospheric Pressure
PRES
in
5-day plot - Pressure Tendency
PTDY
in
5-day plot - Air Temperature
ATMP
°F
5-day plot - Water Temperature
WTMP
°F
5-day plot - Dew Point
DEWP
°F
5-day plot - Salinity
SAL
psu
5-day plot - Visibility
VIS
nmi
5-day plot - Tide (above MLLW)
TIDE
ft
2024-05-30 06:24 pm NE 7.0 8.0----29.97- 68.9-----
2024-05-30 06:18 pm NE 7.0 8.9----29.97- 68.9-----
2024-05-30 06:12 pm NE 8.9 9.9----29.96- 68.9-----
2024-05-30 06:06 pm NE 8.0 9.9----29.96- 68.7-----
2024-05-30 06:00 pm NE 12.0 14.0------------
2024-05-30 05:54 pm NE 9.9 12.0------------
2024-05-30 05:48 pm NE 11.1 12.0----29.96-------
2024-05-30 05:42 pm NE 12.0 13.0----29.96-------
2024-05-30 05:36 pm NE 11.1 13.0----29.96-------
2024-05-30 05:30 pm NE 13.0 14.0----29.96- 68.4-----
2024-05-30 05:24 pm NE 9.9 12.0----29.96- 68.2-----
2024-05-30 05:18 pm NE 8.0 12.0----29.96- 68.0-----
2024-05-30 05:12 pm NE 9.9 12.0----29.96- 68.7-----
2024-05-30 05:06 pmENE 8.0 11.1----29.96- 68.4-----
2024-05-30 05:00 pm NE 9.9 12.0----29.96+0.02 68.2-----
2024-05-30 04:54 pm NE 9.9 13.0----29.96- 68.2-----
2024-05-30 04:48 pm NE 11.1 13.0----29.96-------
2024-05-30 04:42 pm NE 11.1 12.0----29.96-------
2024-05-30 04:36 pm NE 8.9 11.1----29.96-------
2024-05-30 04:30 pm NE 8.0 11.1----29.96- 68.2-----
2024-05-30 04:24 pm NE 9.9 12.0----29.95- 67.8-----
2024-05-30 04:18 pm NE 11.1 13.0----29.95- 67.8-----
2024-05-30 04:12 pm NE 11.1 14.0----29.95- 67.8-----
2024-05-30 04:06 pm NE 12.0 13.0----29.94- 67.8-----
2024-05-30 04:00 pm N 6.0 8.9----29.94-0.01 68.7-----
2024-05-30 03:54 pm NE 6.0 12.0----29.94- 67.8-----
2024-05-30 03:48 pm N 4.1 7.0----29.94- 68.7-----
2024-05-30 03:42 pmNNE 6.0 15.9----29.94- 67.6-----
2024-05-30 03:36 pmNNE 11.1 15.0----29.94- 68.2-----
2024-05-30 03:30 pmWNW 2.9 9.9----29.94- 68.9-----
2024-05-30 03:24 pm N 6.0 13.0----29.94- 68.7-----
2024-05-30 03:18 pmNNW 11.1 13.0----29.94- 68.7-----
2024-05-30 03:12 pmNNE 6.0 8.9----29.95- 68.2-----
2024-05-30 03:06 pm N 9.9 13.0----29.94- 68.4-----
2024-05-30 03:00 pm N 7.0 12.0----29.94-0.01 68.2-----
2024-05-30 02:54 pmNNW 12.0 22.9----29.94- 68.2-----
2024-05-30 02:48 pmNNW 8.0 12.0----29.94- 68.4-----
2024-05-30 02:42 pm N 11.1 14.0----29.94- 67.8-----
2024-05-30 02:36 pmNNW 9.9 13.0----29.94- 67.8-----
2024-05-30 02:30 pm N 11.1 15.9----29.94- 67.5-----
2024-05-30 02:24 pm N 8.9 14.0----29.94- 67.6-----
2024-05-30 02:18 pm N 8.9 13.0----29.94- 67.5-----
2024-05-30 02:12 pm N 8.0 14.0----29.94- 67.3-----
2024-05-30 02:06 pm N 12.0 14.0----29.94- 66.9-----
2024-05-30 02:00 pm N 11.1 14.0----29.94-0.03 67.1-----
2024-05-30 01:54 pm N 7.0 9.9----29.94- 66.7-----
2024-05-30 01:48 pmNNW 11.1 15.9----29.94-------
2024-05-30 01:42 pm N 9.9 13.0----29.94-------
2024-05-30 01:36 pmNNW 9.9 13.0----29.94-------
2024-05-30 01:30 pmNNW 12.0 13.0----29.94- 66.7-----
2024-05-30 01:24 pm N 12.0 14.0----29.94- 66.2-----
2024-05-30 01:18 pm N 12.0 15.0----29.95- 65.8-----
2024-05-30 01:12 pm N 8.9 12.0----29.95- 65.8-----
2024-05-30 01:06 pm N 11.1 14.0----29.95- 66.2-----
2024-05-30 01:00 pmNNW 9.9 15.0----29.95-0.02 65.8-----
2024-05-30 12:54 pm N 9.9 15.0----29.95- 65.7-----
2024-05-30 12:48 pm N 9.9 15.0----29.95- 65.7-----
2024-05-30 12:42 pm N 8.9 15.0----29.96- 65.5-----
2024-05-30 12:36 pm N 13.0 17.1----29.95- 65.1-----
2024-05-30 12:30 pm N 12.0 18.1----29.95- 65.1-----
2024-05-30 12:24 pm N 11.1 15.9----29.95- 64.9-----
2024-05-30 12:18 pm N 12.0 15.9----29.96- 64.8-----
2024-05-30 12:12 pm N 12.0 15.0----29.96- 64.6-----
2024-05-30 12:06 pmNNW 7.0 14.0----29.96- 64.2-----
2024-05-30 12:00 pmNNW 7.0 13.0----29.96-0.01 64.2-----
2024-05-30 11:54 am N 13.0 17.1----29.96- 64.0-----
2024-05-30 11:48 amNNE 8.0 14.0----29.96-------
2024-05-30 11:42 am N 13.0 18.1----29.96-------
2024-05-30 11:36 am N 9.9 13.0----29.96-------
2024-05-30 11:30 am N 13.0 18.1----29.96- 63.0-----
2024-05-30 11:24 am N 11.1 15.0----29.96- 62.6-----
2024-05-30 11:18 am N 14.0 17.1----29.96- 62.6-----
2024-05-30 11:12 am N 15.9 18.1----29.96- 62.4-----
2024-05-30 11:06 am N 14.0 17.1----29.97- 62.1-----
2024-05-30 11:00 am N 12.0 18.1----29.97+0.01 62.1-----
2024-05-30 10:54 am N 15.0 19.0----29.97- 61.5-----
2024-05-30 10:48 am N 15.9 21.0----29.97- 61.0-----
2024-05-30 10:42 am N 17.1 20.0----29.97- 60.8-----
2024-05-30 10:36 am N 14.0 17.1----29.97- 60.4-----
2024-05-30 10:30 amNNW 12.0 18.1----29.97- 60.4-----
2024-05-30 10:24 am N 12.0 15.9----29.97- 60.3-----
2024-05-30 10:18 am N 12.0 15.9----29.97- 60.1-----
2024-05-30 10:12 am N 11.1 15.9----29.98- 60.3-----
2024-05-30 10:06 am N 13.0 17.1----29.98- 59.7-----
2024-05-30 10:00 am N 15.0 18.1----29.98+0.05 59.5-----
2024-05-30 09:54 am N 14.0 15.9----29.98- 59.5-----
2024-05-30 09:48 am N 13.0 17.1----29.98- 59.9-----
2024-05-30 09:42 amNNW 14.0 18.1----29.98- 59.5-----
2024-05-30 09:36 am N 14.0 19.0----29.98- 59.5-----
2024-05-30 09:30 am N 15.9 17.1----29.98- 59.4-----
2024-05-30 09:24 amNNW 12.0 15.0----29.98- 59.9-----
2024-05-30 09:18 am N 12.0 14.0----29.98- 59.4-----
2024-05-30 09:12 amNNW 12.0 17.1----29.97- 59.0-----
2024-05-30 09:06 am N 12.0 18.1----29.97- 59.0-----
2024-05-30 09:00 am N 15.0 18.1----29.97- 59.2-----
2024-05-30 08:54 am N 14.0 19.0----29.97- 59.0-----
2024-05-30 08:48 am N 15.9 19.0----29.97- 58.8-----
2024-05-30 08:42 am N 15.9 18.1----29.97- 59.0-----
2024-05-30 08:36 amNNW 14.0 18.1----29.97- 58.8-----
2024-05-30 08:30 amNNW 11.1 15.9----29.97- 59.0-----
2024-05-30 08:24 amNNW 11.1 15.9----29.97- 59.0-----
2024-05-30 08:18 amNNW 12.0 14.0----29.96- 59.0-----
2024-05-30 08:12 amNNW 11.1 15.0----29.96- 59.0-----
2024-05-30 08:06 amNNW 12.0 19.0----29.96- 58.8-----
2024-05-30 08:00 amNNW 11.1 15.9----29.96- 59.0-----
2024-05-30 07:54 amNNW 11.1 12.0----29.96- 59.0-----
2024-05-30 07:48 amNNW 8.9 12.0----29.96-------
2024-05-30 07:42 am N 9.9 15.0----29.95-------
2024-05-30 07:36 am N 8.0 15.0----29.95-------
2024-05-30 07:30 amNNW 9.9 15.9----29.94- 58.8-----
2024-05-30 07:24 am N 11.1 15.0----29.94- 58.6-----
2024-05-30 07:18 am N 11.1 22.0----29.94- 58.5-----
2024-05-30 07:12 am N 15.0 18.1----29.94- 58.5-----
2024-05-30 07:06 am N 12.0 15.9----29.93- 58.6-----
2024-05-30 07:00 am N 13.0 15.9----29.93- 58.6-----
2024-05-30 06:54 am N 9.9 14.0----29.93- 58.6-----
2024-05-30 06:48 am N 12.0 13.0----29.93- 58.6-----
2024-05-30 06:42 am N 11.1 12.0----29.92- 58.5-----
2024-05-30 06:36 am N 11.1 13.0----29.92- 58.5-----
2024-05-30 06:30 am N 12.0 14.0----29.92- 58.5-----
2024-05-30 06:24 am N 12.0 14.0----29.92- 58.6-----
2024-05-30 06:18 am N 12.0 15.9----29.92- 58.8-----
2024-05-30 06:12 am N 12.0 15.0----29.92- 59.0-----
2024-05-30 06:06 am N 12.0 17.1----29.92- 58.8-----
2024-05-30 06:00 am N 13.0 17.1----29.92+0.02 58.8-----
2024-05-30 05:54 am N 15.0 19.0----29.92- 59.2-----
2024-05-30 05:48 am N 15.9 22.0----29.92- 59.4-----
2024-05-30 05:42 am N 17.1 20.0----29.91- 59.7-----
2024-05-30 05:36 am N 18.1 21.0----29.91- 59.7-----
2024-05-30 05:30 amNNW 14.0 17.1----29.91- 59.7-----
2024-05-30 05:24 amNNW 14.0 17.1----29.91- 59.5-----
2024-05-30 05:18 amNNW 11.1 15.0----29.91- 59.5-----
2024-05-30 05:12 am NW 11.1 14.0----29.91- 59.5-----
2024-05-30 05:06 am NW 13.0 14.0----29.91- 59.5-----
2024-05-30 05:00 am NW 9.9 14.0----29.90+0.00 60.1-----
2024-05-30 04:54 am NW 11.1 15.0----29.90- 60.3-----
2024-05-30 04:48 am NW 12.0 14.0----29.90-------
2024-05-30 04:42 am NW 12.0 15.0----29.90-------
2024-05-30 04:36 am NW 12.0 18.1----29.90-------
2024-05-30 04:30 am NW 17.1 19.0----29.89- 60.6-----
2024-05-30 04:24 amWNW 8.0 9.9----29.90- 60.8-----
2024-05-30 04:18 amWNW 9.9 11.1----29.90- 60.6-----
2024-05-30 04:12 amWNW 9.9 12.0----29.90- 60.4-----
2024-05-30 04:06 amWNW 11.1 12.0----29.90- 60.6-----
2024-05-30 04:00 amWNW 9.9 12.0----29.90-0.01 60.4-----
2024-05-30 03:54 amWNW 11.1 15.0----29.90- 60.4-----
2024-05-30 03:48 amWNW 12.0 13.0----29.90-------
2024-05-30 03:42 amWNW 9.9 12.0----29.90-------
2024-05-30 03:36 am W 9.9 12.0----29.90-------
2024-05-30 03:30 am W 11.1 14.0----29.90- 60.8-----
2024-05-30 03:24 amWNW 12.0 14.0----29.90- 61.0-----
2024-05-30 03:18 am W 8.0 9.9----29.90- 61.3-----
2024-05-30 03:12 am W 11.1 13.0----29.90- 61.2-----
2024-05-30 03:06 am W 11.1 12.0----29.90- 61.7-----
2024-05-30 03:00 am W 8.9 9.9----29.90-0.02 61.9-----
2024-05-30 02:54 amWNW 7.0 8.0----29.90- 61.9-----
2024-05-30 02:48 amWNW 6.0 7.0----29.90- 61.9-----
2024-05-30 02:42 amWNW 6.0 6.0----29.90- 61.9-----
2024-05-30 02:36 amWNW 5.1 6.0----29.90- 61.9-----
2024-05-30 02:30 amWNW 4.1 6.0----29.91- 61.9-----
2024-05-30 02:24 amWNW 5.1 6.0----29.91- 61.9-----
2024-05-30 02:18 am W 4.1 5.1----29.91- 61.7-----
2024-05-30 02:12 amWNW 4.1 5.1----29.91- 61.9-----
2024-05-30 02:06 amWNW 4.1 5.1----29.91- 61.9-----
2024-05-30 02:00 amWNW 5.1 7.0----29.91-0.02 61.7-----
2024-05-30 01:54 amWNW 6.0 8.0----29.91- 61.9-----
2024-05-30 01:48 amWNW 7.0 8.0----29.91-------
2024-05-30 01:42 am W 6.0 8.0----29.91-------
2024-05-30 01:36 amWNW 6.0 8.0----29.91-------
2024-05-30 01:30 am NW 4.1 6.0----29.91- 62.2-----
2024-05-30 01:24 am NW 6.0 8.9----29.90- 62.1-----
2024-05-30 01:18 am NW 8.0 9.9----29.90- 62.1-----
2024-05-30 01:12 amWNW 8.9 12.0----29.90- 62.1-----
2024-05-30 01:06 am NW 9.9 11.1----29.90- 62.1-----
2024-05-30 01:00 amWNW 11.1 13.0----29.91-0.03 61.9-----
2024-05-30 12:54 amWNW 9.9 13.0----29.91- 62.2-----
2024-05-30 12:48 amWNW 8.0 9.9----29.91-------
2024-05-30 12:42 amNNE 8.9 13.0----29.89-------
2024-05-30 12:36 am NE 11.1 11.1----29.88-------
2024-05-30 12:30 am NE 11.1 12.0----29.88- 61.9-----
2024-05-30 12:24 amNNE 8.9 9.9----29.89- 61.9-----
2024-05-30 12:18 am N 7.0 8.9----29.90- 61.9-----
2024-05-30 12:12 am N 6.0 7.0----29.91- 61.9-----
2024-05-30 12:06 am N 7.0 8.0----29.91- 61.9-----
2024-05-30 12:00 am N 6.0 7.0----29.92+0.00 61.9-----
2024-05-29 11:54 pm N 6.0 7.0----29.92- 62.1-----
2024-05-29 11:48 pm N 6.0 8.0----29.93- 62.2-----
2024-05-29 11:42 pm N 6.0 8.0----29.93- 62.1-----
2024-05-29 11:36 pm N 6.0 7.0----29.93- 62.2-----
2024-05-29 11:30 pmNNW 4.1 5.1----29.93- 62.1-----
2024-05-29 11:24 pmNNW 5.1 6.0----29.93- 62.1-----
2024-05-29 11:18 pmWNW 4.1 5.1----29.93- 62.1-----
2024-05-29 11:12 pm NW 4.1 6.0----29.93- 62.2-----
2024-05-29 11:06 pmNNW 4.1 6.0----29.93- 62.1-----
2024-05-29 11:00 pmNNW 2.9 5.1----29.93+0.06 61.9-----
2024-05-29 10:54 pmNNW 4.1 8.0----29.93- 61.9-----
2024-05-29 10:48 pmNNW 6.0 8.0----29.92- 61.7-----
2024-05-29 10:42 pm N 7.0 9.9----29.91- 61.7-----
2024-05-29 10:36 pm N 8.9 9.9----29.91- 61.7-----
2024-05-29 10:30 pm N 8.9 9.9----29.92- 61.7-----
2024-05-29 10:24 pm N 8.0 8.9----29.93- 61.5-----
2024-05-29 10:18 pm N 8.0 13.0----29.93- 61.7-----
2024-05-29 10:12 pm NW 8.0 12.0----29.93- 61.9-----
2024-05-29 10:06 pm NW 9.9 13.0----29.93- 62.1-----
2024-05-29 10:00 pm NW 11.1 14.0----29.94+0.06 61.9-----
2024-05-29 09:54 pmWNW 14.0 15.0----29.94- 61.7-----
2024-05-29 09:48 pmWNW 13.0 15.0----29.94- 61.3-----
2024-05-29 09:42 pmWNW 14.0 17.1----29.94- 61.5-----
2024-05-29 09:36 pmWNW 12.0 15.0----29.94- 61.5-----
2024-05-29 09:30 pmWNW 15.0 19.0----29.95- 61.5-----
2024-05-29 09:24 pmWNW 14.0 20.0----29.94- 61.7-----
2024-05-29 09:18 pm W 19.0 26.0----29.94- 61.9-----
2024-05-29 09:12 pm W 18.1 24.1----29.93- 61.9-----
2024-05-29 09:06 pm W 19.0 25.1----29.93- 61.7-----
2024-05-29 09:00 pm W 22.9 26.0----29.92+0.04 61.7-----
2024-05-29 08:54 pmWSW 26.0 29.9----29.91- 61.9-----
2024-05-29 08:48 pmWSW 25.1 34.0----29.91- 63.0-----
2024-05-29 08:42 pm SW 26.0 36.9----29.90- 65.8-----
2024-05-29 08:36 pm S 15.0 15.9----29.88- 68.2-----
2024-05-29 08:30 pm S 12.0 14.0----29.88- 67.3-----
2024-05-29 08:24 pm S 12.0 13.0----29.88- 67.3-----
2024-05-29 08:18 pm S 11.1 12.0----29.88- 67.1-----
2024-05-29 08:12 pm S 12.0 14.0----29.88- 67.5-----
2024-05-29 08:06 pm S 13.0 14.0----29.88- 66.9-----
2024-05-29 08:00 pm S 14.0 15.0----29.87-0.01 66.7-----
2024-05-29 07:54 pm S 14.0 17.1----29.87- 66.4-----
2024-05-29 07:48 pm S 15.9 17.1----29.88-------
2024-05-29 07:42 pmSSE 13.0 15.0----29.88-------
2024-05-29 07:36 pm S 12.0 14.0----29.88-------
2024-05-29 07:30 pm S 13.0 14.0----29.88- 66.7-----
2024-05-29 07:24 pm S 13.0 15.0----29.88- 66.7-----
2024-05-29 07:18 pm S 14.0 15.9----29.88- 66.7-----
2024-05-29 07:12 pm S 14.0 18.1----29.87- 66.6-----
2024-05-29 07:06 pm S 15.9 17.1----29.88- 67.1-----
2024-05-29 07:00 pm S 14.0 15.9----29.88+0.00 66.9-----
2024-05-29 06:54 pm S 15.0 15.9----29.87- 67.3-----